User: anonymous   Login
Location: Unspecified
(0.0000°N, 0.0000°E)
Time: 09:48:05
(UTC+02:00)
Language:

Cosmos 2219 Rocket - Orbit

View from above orbital plane
View from above orbital plane
View from above satellite
View from above satellite

Ground track
Ground track

The orbit data is extracted from the following two-line orbital elements,

1 22220U 92076B   15146.85104897  .00000190  00000-0  11988-3 0  9991
2 22220 071.0000 202.8101 0013831 330.6103 152.1980 14.16368740164247
Epoch (UTC): 26 May 2015 20:25:30
Eccentricity: 0.0013831
inclination: 71.0000°
perigee height: 827 km
apogee height: 847 km
right ascension of ascending node: 202.8101°
argument of perigee: 330.6103°
revolutions per day: 14.16368740
mean anomaly at epoch: 152.1980°
orbit number at epoch: 16424

The dashed part of the orbit path shows where the satellite is in the earth's shadow,  

DLR